Location: Fontvive
(44.4833°N, 6.8167°E)
Time: 02:37:18
(UTC+00:00)

Daily predictions for brighter satellites

Satellite Brightness Start Highest point End
(mag) Time Altitude Azimuth Time Altitude Azimuth Time Altitude Azimuth
CENTAUR R/B 4.4 02:14:21 34° E 02:14:21 34° E 02:19:46 10° ESE
Cosmos 2263 Rocket 4.2 03:01:26 23° NE 03:01:26 23° NE 03:03:43 10° NE
SJ 16-02 4.4 03:08:47 12° ENE 03:08:47 12° ENE 03:09:22 10° NE
CZ-4C R/B 4.1 03:25:49 18° SE 03:27:27 21° ESE 03:31:29 10° ENE
ATLAS 3B R/B 3.9 03:30:34 31° N 03:32:23 35° NE 03:38:50 10° ESE
Cosmos 1943 4.1 03:36:00 44° ESE 03:36:00 44° ESE 03:39:59 10° SE
Lacrosse 4 Rocket 3.7 03:38:11 23° ESE 03:38:11 23° ESE 03:40:09 10° SE
ALOS 3.6 03:50:23 10° NNE 03:53:16 35° NE 03:53:16 35° NE
NOSS 3-2 (C) 4.0 04:00:08 64° W 04:00:50 67° WSW 04:09:19 10° SSE
NOSS 3-4 (A) 3.2 04:00:50 88° S 04:00:53 88° SE 04:07:12 10° NE
NOSS 3-4 (C) 3.2 04:00:54 86° S 04:01:01 88° SE 04:07:20 10° NE
CENTAUR R/B 3.1 04:01:35 60° W 04:02:50 66° WSW 04:11:36 10° SSE
Milstar 3 Cent rocket 4.3 04:00:16 21° SSW 04:03:11 27° SSE 04:12:30 10° ESE
Cosmos 158 Rocket 4.2 04:10:38 55° NNE 04:11:23 62° ENE 04:16:19 10° SSE
SL-4 R/B 3.9 04:15:02 22° NE 04:15:02 22° NE 04:16:45 10° NE
Cosmos 1151 Rocket 3.5 04:17:01 55° SE 04:17:01 55° SE 04:20:28 10° SSE
Cosmos 1844 Rocket 4.2 04:11:53 10° S 04:16:57 35° ESE 04:22:03 10° NE
Cosmos 1782 3.9 04:16:35 36° NE 04:17:36 44° ENE 04:21:28 10° SSE
ATLAS 2AS CENTAUR R/B 2.9 04:15:30 26° SW 04:20:27 88° NW 04:28:22 10° NE
ERS-2 3.9 04:17:41 10° SSE 04:19:17 25° SSE 04:19:17 25° SSE
Cosmos 1680 Rocket 3.9 04:20:02 30° N 04:22:39 62° ENE 04:27:54 10° SSE
ATLAS 5 CENTAUR R/B 4.1 04:31:19 14° N 04:31:19 14° N 04:31:47 10° NNE
Atlas Centaur 2 4.1 04:26:40 16° SSW 04:29:20 21° S 04:33:27 10° SE
RESURS DK-1 3.3 04:27:05 10° S 04:31:05 48° ESE 04:35:06 10° NE
CRYOSAT 2 4.5 04:27:05 10° SSE 04:31:56 74° E 04:36:48 10° N
Lacrosse 5 1.7 04:32:03 66° W 04:32:40 77° NW 04:37:45 10° NE
ATLAS CENTAUR R/B 2.4 04:32:06 31° NNE 04:32:54 35° NE 04:36:31 10° ESE
ADEOS 3.4 04:29:35 10° N 04:34:49 75° WNW 04:40:01 10° SSW
Cosmos 1328 Rocket 3.4 04:35:40 66° NNW 04:36:13 79° W 04:40:38 10° S
Cosmos 2263 Rocket 2.9 04:43:10 34° NW 04:43:10 34° NW 04:47:41 10° NNE
Cosmos 2112 Rocket 4.1 04:38:53 22° NNW 04:42:26 79° ENE 04:47:46 10° SSE
Gbstr 26 Del rocket 2.5 04:43:34 71° N 04:43:47 75° NNE 04:47:40 10° ESE
SJ 16-02 2.0 04:45:52 38° NNW 04:45:52 38° NNW 04:49:00 10° N
Meteor 1-4 Rocket 4.1 04:46:48 22° SSW 04:46:48 22° SSW 04:48:13 10° S
Cosmos 1898 Rocket 3.5 04:46:50 10° SSW 04:52:09 85° ESE 04:57:31 10° NNE
Meteor 1-26 Rocket 4.2 04:48:59 14° NNW 04:53:51 58° W 04:59:18 10° S
FALCON 9 DEB 3.1 04:56:35 57° N 04:56:35 57° N 04:59:28 10° NE
FALCON 9 DEB 3.2 04:56:45 53° N 04:56:45 53° N 04:59:35 10° NE
FENGYUN 3A 4.0 04:54:33 10° N 04:59:37 41° WNW 05:04:37 10° SW
Cosmos 1743 Rocket 3.9 04:55:13 10° S 04:59:38 69° E 05:04:05 10° NNE
Cosmos 1408 Rocket 3.5 04:57:14 10° SSW 05:01:38 59° W 05:06:03 10° N
H-2A R/B 4.5 05:00:05 10° NE 05:03:25 28° E 05:06:43 10° SSE
NOSS 7 (H) 4.3 05:01:45 18° SSW 05:04:11 78° SE 05:07:09 10° NE
Cosmos 2181 Rocket 4.1 04:59:02 10° NNW 05:04:57 49° W 05:10:48 10° SSW
COSMO-SKYMED 1 2.6 05:00:42 10° S 05:04:58 58° W 05:07:59 19° NNW
USA 307 4.5 05:05:08 20° NNW 05:06:32 24° N 05:10:03 10° ENE
Cosmos 1937 Rocket 3.5 05:04:05 10° SSW 05:09:14 86° ESE 05:14:27 10° NNE
USA 308 4.5 05:11:14 19° NNW 05:12:57 24° N 05:16:29 10° ENE
Meteor 2-3 Rocket 4.2 05:08:28 10° SW 05:13:46 38° WNW 05:19:10 10° N
Lacrosse 4 Rocket 2.7 05:14:32 23° WSW 05:14:32 23° WSW 05:18:00 10° SSW
CZ-4C R/B 2.1 05:11:05 15° SW 05:15:14 59° NW 05:21:08 10° NNE
MOS 1 Rocket 3.6 05:10:34 10° SSE 05:15:21 74° ENE 05:20:27 10° N
Cosmos 2154 Rocket 4.2 05:09:13 10° S 05:15:24 75° E 05:21:41 10° NNE
Cosmos 1943 4.5 05:17:53 20° W 05:17:53 20° W 05:21:48 10° SW
Cosmos 1689 Rocket 2.3 05:15:18 10° S 05:18:02 42° W 05:18:12 41° W
CZ-4B R/B 3.1 05:13:54 10° N 05:18:19 56° WNW 05:22:36 10° SSW
Cosmos 1805 Rocket 4.4 05:14:30 10° S 05:18:50 54° E 05:23:11 10° NNE
FALCON 9 DEB 3.4 05:18:33 37° WNW 05:19:10 42° NNW 05:22:16 10° NE
Meteor 1-10 Rocket 4.2 05:15:51 10° N 05:21:27 87° E 05:27:04 10° S
SAR-Lupe-4 4.3 05:18:40 10° SSW 05:21:52 31° W 05:22:38 28° WNW
Aureole 2 Rocket 1.9 05:20:43 10° SSW 05:23:14 67° ESE 05:25:46 10° NNE
ATLAS 3B R/B 2.8 05:17:52 16° NW 05:23:31 65° WSW 05:30:39 10° SSE
Cosmos 1862 3.2 05:22:21 10° SSW 05:26:23 70° W 05:30:27 10° N
Genesis I 3.4 05:24:54 14° WSW 05:27:56 47° NW 05:31:41 10° NNE
YAOGAN 6 2.9 05:25:34 10° NNE 05:29:04 65° E 05:32:31 10° S
deb Chang Zheng 4 4.5 05:28:19 10° N 05:31:56 26° WNW 05:35:32 10° WSW
ALOS 3.6 05:28:47 10° NNW 05:31:44 19° WNW 05:31:44 19° WNW
Cosmos 858 Rocket 4.5 05:28:26 10° SSW 05:33:34 60° WNW 05:38:47 10° NNE
Cosmos 2327 Rocket 4.4 05:28:45 10° SSW 05:34:50 76° W 05:40:57 10° N
Cosmos 990 Rocket 4.5 05:30:09 10° SW 05:35:01 38° WNW 05:39:55 10° N
Cosmos 2074 Rocket 4.1 05:30:19 10° SSW 05:36:18 50° WNW 05:42:20 10° N
PSLV R/B 3.6 05:34:02 10° N 05:37:54 74° WNW 05:41:39 10° SSW
ASTRO F (AKARI) 4.4 05:36:49 10° N 05:39:49 46° WNW 05:42:51 10° SSW
BREEZE M DEB (TANK) 2.9 05:33:49 10° SW 05:41:57 72° SSE 05:44:45 10° ENE
USA 305 4.3 05:38:55 13° NW 05:42:01 28° NNE 05:45:45 10° ENE
Cosmos 405 Rocket 2.8 05:38:41 10° SSW 05:42:15 48° WNW 05:45:54 10° N
SL-24 DEB 4.3 05:37:41 10° S 05:42:27 88° W 05:47:16 10° N
EO 1 Delta rocket 4.2 05:41:23 10° S 05:46:17 46° W 05:50:46 10° NNW
Cosmos 1295 Rocket 4.4 05:41:43 10° SSW 05:47:47 77° W 05:53:54 10° N
Cosmos 1812 3.1 05:44:09 10° NNW 05:47:48 42° W 05:51:25 10° SSW
Cosmos 2228 Rocket 3.4 05:46:06 10° NNW 05:50:20 45° W 05:54:31 10° SSW
USA 306 4.2 05:47:01 12° NW 05:50:30 29° NNE 05:54:18 10° ENE
Cosmos 1633 Rocket 4.2 05:48:09 10° SSE 05:52:24 48° E 05:56:40 10° NNE
SL-4 R/B 3.0 05:50:37 13° NW 05:53:35 29° N 05:56:49 10° ENE
Cosmos 2184 Rocket 4.5 05:48:05 10° SW 05:53:55 39° WNW 05:59:53 10° N
Cosmos 1356 3.6 05:54:31 10° S 05:57:54 76° E 06:01:20 10° NNE
USA 234 3.4 05:52:01 10° NE 05:58:35 80° SE 06:05:08 10° SW
FALCON 9 DEB 4.3 05:56:58 13° WNW 05:59:14 25° NNW 06:01:58 10° NE
Cosmos 1844 Rocket 3.2 05:55:32 10° WSW 06:00:46 38° NW 06:06:04 10° NNE
Cosmos 1707 Rocket 3.5 06:03:05 10° N 06:07:26 80° W 06:11:44 10° S
EXPRESS MD2 4.3 06:03:38 10° WNW 06:07:41 78° NNE 06:16:12 10° ESE
COSMOS 2455 2.9 06:02:52 10° SW 06:08:52 68° NW 06:14:55 10° NNE
MOS 1-B 4.4 06:03:24 10° N 06:09:10 66° WNW 06:14:55 10° SSW
RESURS DK-1 3.8 06:06:20 10° W 06:09:22 19° NW 06:12:25 10° N
BREEZE-M (TANK) 3.5 06:03:21 10° SW 06:10:37 54° SSE 06:13:13 10° ENE
ATLAS CENTAUR R/B 2.6 06:08:35 10° WNW 06:11:37 23° WSW 06:14:44 10° SSW
BREEZE-M DEB 3.9 06:03:44 10° WNW 06:12:03 45° SW 06:14:55 10° SSE
NOAA 6 4.2 06:07:18 10° N 06:12:16 53° WNW 06:17:13 10° SW
ATLAS 2AS CENTAUR R/B 3.8 06:05:36 10° W 06:12:29 31° NNW 06:19:13 10° NNE
Cosmos 1844 4.2 06:09:37 10° WSW 06:14:42 36° NW 06:19:51 10° NNE
H-2A R/B 4.0 06:11:44 10° NNW 06:14:46 22° WNW 06:17:47 10° WSW
Lacrosse 5 3.0 06:12:06 10° WNW 06:16:20 26° NNW 06:20:34 10° NE
CZ-4B DEB 4.4 06:12:10 10° N 06:17:25 49° WNW 06:22:38 10° SW
